Weather History for Sturgeon Bay, WI

Change the Weather History Date:

Wednesday, October 29, 2014

  Actual Average Record
Temperature  
Mean Temperature 44 °F -  
Max Temperature 48 °F 50 °F 72 °F (1937)
Min Temperature 41 °F 33 °F 14 °F (1905)
Degree Days  
Heating Degree Days 22    
Moisture  
Dew Point 32 °F    
Average Humidity 63    
Maximum Humidity 70    
Minimum Humidity 57    
Precipitation  
Precipitation 0.00 in - - ()
Sea Level Pressure  
Sea Level Pressure 29.97 in    
Wind  
Wind Speed 13 mph (NW)    
Max Wind Speed 21 mph    
Max Gust Speed 28 mph    
Visibility 10 miles    
Events      
Averages and records for this station are not official NWS values.
T = Trace of Precipitation, MM = Missing Value Source: NWS Daily Summary

Daily Weather History Graph

Daily Weather History Graph

Search for Another Location

Airport:

Trip Planner

Search our weather history database for the weather conditions in past years. The results will help you decide how hot, cold, wet, or windy it might be!

Date:

Astronomy

Oct. 29, 2014 Rise Set
Actual Time 7:23 AM CDT 5:42 PM CDT
Civil Twilight 6:53 AM CDT 6:12 PM CDT
Nautical Twilight 6:18 AM CDT 6:47 PM CDT
Astronomical Twilight 5:45 AM CDT 7:20 PM CDT
Moon 12:45 PM CDT (10/29) 10:49 PM CDT (10/29)
Length of Visible Light 11h 19m
Length of Day
10h 18m
Waxing Crescent, 34% of the Moon is Illuminated
Oct 29
Waxing Crescent
Oct 30
First Quarter
Nov 6
Full
Nov 14
Last Quarter
Nov 22
New

Hourly Weather History & Observations

Time (CDT) Temp. Windchill Dew Point Humidity Pressure Visibility Wind Dir Wind Speed Gust Speed Precip Events Conditions
12:15 AM 46.4 °F 39.5 °F 33.8 °F 62% 29.78 in 10.0 mi West 17.3 mph 23.0 mph N/A   Overcast
12:35 AM 44.6 °F 39.2 °F 33.8 °F 66% 29.78 in 10.0 mi West 10.4 mph 20.7 mph N/A   Overcast
12:55 AM 44.6 °F 37.8 °F 33.8 °F 66% 29.78 in 10.0 mi West 15.0 mph 20.7 mph N/A   Overcast
1:15 AM 44.6 °F 37.2 °F 33.8 °F 66% 29.79 in 10.0 mi West 17.3 mph 23.0 mph N/A   Overcast
1:35 AM 44.6 °F 36.9 °F 32.0 °F 61% 29.79 in 10.0 mi West 18.4 mph 26.5 mph N/A   Overcast
1:55 AM 44.6 °F 36.4 °F 30.2 °F 57% 29.80 in 10.0 mi West 20.7 mph 26.5 mph N/A   Overcast
2:15 AM 42.8 °F 35.4 °F 30.2 °F 61% 29.81 in 10.0 mi West 15.0 mph 21.9 mph N/A   Mostly Cloudy
2:35 AM 42.8 °F 35.4 °F 30.2 °F 61% 29.81 in 10.0 mi West 15.0 mph 21.9 mph N/A   Overcast
2:55 AM 42.8 °F 34.5 °F 28.4 °F 57% 29.82 in 10.0 mi West 18.4 mph 25.3 mph N/A   Overcast
3:15 AM 42.8 °F 35.1 °F 30.2 °F 61% 29.83 in 10.0 mi WNW 16.1 mph 23.0 mph N/A   Overcast
3:35 AM 41.0 °F 31.6 °F 28.4 °F 61% 29.83 in 10.0 mi West 20.7 mph 27.6 mph N/A   Mostly Cloudy
3:55 AM 41.0 °F 32.5 °F 28.4 °F 61% 29.83 in 10.0 mi West 17.3 mph 26.5 mph N/A   Mostly Cloudy
4:15 AM 41.0 °F 33.5 °F 28.4 °F 61% 29.84 in 10.0 mi West 13.8 mph 20.7 mph N/A   Overcast
4:35 AM 41.0 °F 32.8 °F 30.2 °F 65% 29.84 in 10.0 mi West 16.1 mph 20.7 mph N/A   Overcast
4:55 AM 41.0 °F 32.8 °F 30.2 °F 65% 29.85 in 10.0 mi West 16.1 mph 23.0 mph N/A   Overcast
5:15 AM 41.0 °F 33.5 °F 30.2 °F 65% 29.86 in 10.0 mi West 13.8 mph 21.9 mph N/A   Overcast
5:35 AM 41.0 °F 32.8 °F 28.4 °F 61% 29.86 in 10.0 mi West 16.1 mph 23.0 mph N/A   Overcast
5:55 AM 41.0 °F 33.1 °F 30.2 °F 65% 29.87 in 10.0 mi West 15.0 mph 23.0 mph N/A   Overcast
6:15 AM 41.0 °F 33.1 °F 30.2 °F 65% 29.87 in 10.0 mi WNW 15.0 mph 24.2 mph N/A   Overcast
6:35 AM 41.0 °F 32.5 °F 30.2 °F 65% 29.88 in 10.0 mi WNW 17.3 mph 23.0 mph N/A   Overcast
6:55 AM 41.0 °F 34.3 °F 30.2 °F 65% 29.89 in 10.0 mi WNW 11.5 mph 23.0 mph N/A   Overcast
7:15 AM 41.0 °F 32.8 °F 30.2 °F 65% 29.90 in 10.0 mi WNW 16.1 mph 23.0 mph N/A   Overcast
7:35 AM 41.0 °F 33.1 °F 30.2 °F 65% 29.90 in 10.0 mi WNW 15.0 mph 20.7 mph N/A   Overcast
7:55 AM 41.0 °F 33.5 °F 30.2 °F 65% 29.92 in 10.0 mi NW 13.8 mph - N/A   Overcast
8:15 AM 41.0 °F 32.5 °F 30.2 °F 65% 29.93 in 10.0 mi NW 17.3 mph - N/A   Overcast
8:35 AM 41.0 °F 32.5 °F 30.2 °F 65% 29.94 in 10.0 mi NW 17.3 mph 24.2 mph N/A   Overcast
8:55 AM 41.0 °F 33.5 °F 32.0 °F 70% 29.95 in 10.0 mi NW 13.8 mph 17.3 mph N/A   Overcast
9:15 AM 41.0 °F 32.8 °F 32.0 °F 70% 29.96 in 10.0 mi WNW 16.1 mph 21.9 mph N/A   Overcast
9:35 AM 42.8 °F 35.4 °F 32.0 °F 66% 29.96 in 10.0 mi NW 15.0 mph - N/A   Overcast
9:55 AM 42.8 °F 35.8 °F 33.8 °F 70% 29.97 in 10.0 mi NW 13.8 mph - N/A   Mostly Cloudy
10:15 AM 42.8 °F 37.0 °F 33.8 °F 70% 29.98 in 10.0 mi NW 10.4 mph - N/A   Mostly Cloudy
10:35 AM 44.6 °F 37.8 °F 33.8 °F 66% 29.98 in 10.0 mi NNW 15.0 mph - N/A   Overcast
10:55 AM 44.6 °F 38.1 °F 32.0 °F 61% 29.99 in 10.0 mi NNW 13.8 mph 19.6 mph N/A   Overcast
11:15 AM 44.6 °F 38.8 °F 32.0 °F 61% 29.99 in 10.0 mi NNW 11.5 mph - N/A   Overcast
11:35 AM 44.6 °F 39.2 °F 32.0 °F 61% 30.00 in 10.0 mi NNW 10.4 mph - N/A   Overcast
11:55 AM 44.6 °F 38.8 °F 33.8 °F 66% 30.00 in 10.0 mi NNW 11.5 mph - N/A   Overcast
12:15 PM 46.4 °F 40.7 °F 33.8 °F 62% 30.01 in 10.0 mi NNW 12.7 mph 17.3 mph N/A   Overcast
12:35 PM 44.6 °F 38.4 °F 33.8 °F 66% 30.01 in 10.0 mi NNW 12.7 mph - N/A   Overcast
12:55 PM 46.4 °F 41.1 °F 32.0 °F 57% 30.01 in 10.0 mi NNW 11.5 mph - N/A   Overcast
1:15 PM 44.6 °F 39.2 °F 33.8 °F 66% 30.01 in 10.0 mi NW 10.4 mph - N/A   Overcast
1:35 PM 46.4 °F 41.9 °F 32.0 °F 57% 30.01 in 10.0 mi WNW 9.2 mph - N/A   Overcast
1:55 PM 46.4 °F 41.9 °F 32.0 °F 57% 30.01 in 10.0 mi NW 9.2 mph - N/A   Overcast
2:15 PM 46.4 °F 41.5 °F 33.8 °F 62% 30.02 in 10.0 mi NW 10.4 mph - N/A   Overcast
2:35 PM 46.4 °F 41.5 °F 33.8 °F 62% 30.02 in 10.0 mi NW 10.4 mph - N/A   Overcast
2:55 PM 46.4 °F 42.9 °F 33.8 °F 62% 30.03 in 10.0 mi NW 6.9 mph - N/A   Overcast
3:15 PM 46.4 °F 42.9 °F 33.8 °F 62% 30.03 in 10.0 mi NW 6.9 mph - N/A   Overcast
3:35 PM 46.4 °F 41.9 °F 33.8 °F 62% 30.03 in 10.0 mi NNW 9.2 mph - N/A   Overcast
3:55 PM 46.4 °F 41.9 °F 33.8 °F 62% 30.04 in 10.0 mi NNW 9.2 mph - N/A   Overcast
4:15 PM 46.4 °F 42.4 °F 33.8 °F 62% 30.04 in 10.0 mi NNW 8.1 mph - N/A   Overcast
4:35 PM 46.4 °F 42.9 °F 33.8 °F 62% 30.04 in 10.0 mi NNW 6.9 mph - N/A   Overcast
4:55 PM 46.4 °F 42.9 °F 33.8 °F 62% 30.05 in 10.0 mi North 6.9 mph - N/A   Overcast
5:15 PM 46.4 °F 43.5 °F 33.8 °F 62% 30.05 in 10.0 mi NNW 5.8 mph - N/A   Overcast
5:35 PM 46.4 °F 42.9 °F 33.8 °F 62% 30.06 in 10.0 mi NW 6.9 mph - N/A   Overcast
5:55 PM 46.4 °F 42.9 °F 32.0 °F 57% 30.07 in 10.0 mi NW 6.9 mph - N/A   Overcast
6:15 PM 46.4 °F 42.9 °F 32.0 °F 57% 30.07 in 10.0 mi NW 6.9 mph - N/A   Overcast
6:35 PM 46.4 °F 42.9 °F 32.0 °F 57% 30.08 in 10.0 mi NW 6.9 mph - N/A   Overcast
6:55 PM 46.4 °F 43.5 °F 32.0 °F 57% 30.08 in 10.0 mi NW 5.8 mph - N/A   Overcast
7:15 PM 46.4 °F 42.9 °F 33.8 °F 62% 30.08 in 10.0 mi NW 6.9 mph - N/A   Overcast
7:35 PM 46.4 °F 45.2 °F 32.0 °F 57% 30.08 in 10.0 mi NNW 3.5 mph - N/A   Overcast
7:55 PM 46.4 °F 42.9 °F 33.8 °F 62% 30.08 in 10.0 mi NW 6.9 mph - N/A   Overcast
8:15 PM 46.4 °F 45.2 °F 33.8 °F 62% 30.08 in 10.0 mi WNW 3.5 mph - N/A   Overcast
8:35 PM 46.4 °F 45.2 °F 32.0 °F 57% 30.08 in 10.0 mi WNW 3.5 mph - N/A   Overcast
8:55 PM 46.4 °F 44.3 °F 33.8 °F 62% 30.08 in 10.0 mi WNW 4.6 mph - N/A   Overcast
9:15 PM 46.4 °F 45.2 °F 33.8 °F 62% 30.08 in 10.0 mi WNW 3.5 mph - N/A   Overcast
9:35 PM 46.4 °F 44.3 °F 33.8 °F 62% 30.08 in 10.0 mi WNW 4.6 mph - N/A   Overcast
9:55 PM 46.4 °F 42.4 °F 33.8 °F 62% 30.09 in 10.0 mi NW 8.1 mph - N/A   Overcast
10:15 PM 46.4 °F 43.5 °F 33.8 °F 62% 30.09 in 10.0 mi NW 5.8 mph - N/A   Overcast
10:35 PM 46.4 °F 42.9 °F 33.8 °F 62% 30.10 in 10.0 mi WNW 6.9 mph - N/A   Overcast
10:55 PM 44.6 °F 40.2 °F 33.8 °F 66% 30.09 in 10.0 mi NW 8.1 mph - N/A   Overcast
11:15 PM 44.6 °F 39.7 °F 33.8 °F 66% 30.10 in 10.0 mi NW 9.2 mph - N/A   Overcast
11:35 PM 44.6 °F 38.8 °F 33.8 °F 66% 30.10 in 10.0 mi NNW 11.5 mph - N/A   Overcast
11:55 PM 44.6 °F 39.7 °F 33.8 °F 66% 30.10 in 10.0 mi NW 9.2 mph - N/A   Overcast